Wind_Speed
4 4 4 4 5 5 5 6 5 6 6 6 7 6 7 6 6 6 6 6 6 6 5 5 5 5 4 4 4 4 4 4 3 4 4 4 4 4 4 4 5 5 5
6 5 6 6 6 6 6 7 7 7 7 7 6 6 7 7 7 6 6 6 7 7 6 6 6 7 6 6 5 6 5 5 4 5 5 6 6 6 6 6 6 6 7
7 7 7 7 7 7 8 8 8 8 8 8 8 8 7 7 7 7 7 6 7 7 7 7 6 7 7 7 6 6 6 6 6 6 6 7 7 7 7 7 7 8 8
7 8 8 8 8 8 9 10 10 9 9 9 9 8 8 8 8 8 7 6 7 7 7 7 7 7 6 6 6 6 6 6 6 7 7 7 8 8 8 7 8 8 8
8 8 8 8 8 8 9 10 10 10 10 10 10 9 9 8 9 8 7 7 7 7 7 7 7 6 6 6 6 6 6 7 7 7 7 8 8 9 9 8 8 8 9
8 8 8 8 8 9 9 9 8 9 9 10 9 9 8 8 9 8 8 8 7 7 7 7 7 7 7 6 6 6 6 7 7 7 7 8 8 9 9 9 8 9 9
8 8 8 8 8 9 9 8 8 8 8 8 8 9 8 8 9 8 9 9 8 9 8 8 8 7 8 8 8 8 7 7 7 7 7 7 8 8 9 8 8 9 9
8 8 8 8 8 8 8 8 7 7 7 7 8 7 8 8 9 8 9 9 9 9 9 9 9 8 8 8 8 9 9 9 8 8 8 7 8 8 8 8 8 8 9
8 9 8 9 9 10 10 8 7 7 7 7 7 7 8 8 8 9 9 9 9 10 10 10 10 9 9 9 9 9 10 10 9 9 9 8 8 8 9 9 9 9 9
9 9 9 10 10 10 10 9 8 7 7 8 8 8 9 9 9 9 9 9 10 10 10 11 11 10 10 10 10 10 10 10 9 9 9 9 9 9 9 9 9 9 9
10 10 10 10 10 10 10 9 9 8 9 9 9 10 10 10 10 10 10 10 10 11 10 10 10 11 10 10 10 10 10 10 9 8 10 10 10 9 9 9 9 9 10
10 10 10 10 10 10 10 10 10 10 9 9 9 10 10 10 10 11 11 11 11 11 11 10 10 10 10 10 10 10 11 11 10 9 9 10 10 10 10 10 10 10 10
11 11 10 10 10 10 10 10 10 11 10 10 10 10 10 10 10 11 12 11 11 11 11 11 11 11 11 11 11 10 10 11 10 10 9 10 10 10 10 10 10 10 11
12 11 11 11 11 11 11 11 11 11 11 11 11 10 10 10 11 11 11 12 12 12 12 12 11 11 11 11 11 11 10 10 11 11 10 10 10 10 10 11 11 11 11
12 12 12 11 11 12 12 12 12 12 12 12 11 11 11 11 12 12 12 12 12 13 13 12 12 12 12 11 11 11 10 10 10 10 10 11 11 11 11 11 11 12 12
12 12 12 12 12 12 12 13 13 13 13 13 13 12 12 12 12 12 12 11 12 12 13 13 13 12 12 12 11 11 10 10 11 11 10 10 11 11 11 11 11 12 12
12 13 12 12 12 12 12 12 13 13 13 14 13 13 13 13 13 12 12 12 12 12 12 12 13 13 13 12 12 11 11 11 11 11 11 11 12 12 12 12 12 12 12
13 13 13 13 13 13 13 13 13 14 13 13 13 13 14 14 13 12 12 12 13 12 12 12 12 12 13 13 13 12 12 12 12 12 12 12 12 12 12 12 12 12 12
14 14 14 14 13 13 14 14 13 14 13 13 14 14 15 15 14 14 14 13 14 13 13 13 12 12 13 14 14 14 13 13 13 14 14 13 13 12 12 12 12 12 13
14 14 14 14 14 14 14 14 14 14 14 14 14 14 14 15 15 15 14 14 15 14 14 14 14 14 14 14 15 15 15 15 14 14 15 15 14 13 13 12 12 12 12
14 15 15 14 15 15 16 15 15 15 15 15 15 15 15 16 16 16 16 16 16 16 16 15 15 15 15 15 15 16 15 15 15 14 14 14 14 14 14 13 12 12 11
15 15 16 16 16 15 16 16 16 16 16 15 15 16 16 16 17 17 17 17 17 17 17 17 17 17 16 16 16 16 16 15 15 14 14 14 14 14 13 13 12 12 12
15 15 15 15 16 16 16 17 17 17 17 17 16 16 16 17 17 17 18 18 18 18 18 17 18 17 18 18 17 16 16 17 16 16 15 15 14 14 14 14 13 13 13
13 14 15 15 15 16 16 16 17 16 17 17 17 17 17 17 18 18 18 18 19 20 20 20 20 19 19 18 18 17 17 17 16 16 16 16 15 15 15 15 14 13 13
14 14 15 15 15 15 16 16 16 16 17 17 17 18 18 19 19 19 19 19 19 20 20 19 20 20 20 19 19 19 18 18 18 18 17 16 16 15 15 15 15 15 15
14 15 15 15 16 16 17 17 17 17 17 18 18 19 19 19 20 20 20 20 20 20 20 20 20 20 20 20 20 20 20 19 19 18 17 16 16 16 16 16 15 15 15
Wind_Direction
263 264 270 274 275 275 280 283 281 270 263 259 255 255 252 250 255 258 258 258 263 264 267 267 271 270 267 264 266 261 247 240 240 233 230 234 237 231 228 216 220 230 236
268 269 272 272 277 279 284 287 287 283 275 268 264 264 260 254 256 261 262 263 266 268 272 271 269 269 270 267 265 260 251 245 243 242 242 240 240 242 244 239 235 240 243
272 270 270 272 277 283 283 285 286 284 279 275 272 273 266 260 263 268 265 266 269 268 272 276 276 272 274 271 266 257 252 249 247 246 248 245 243 244 247 247 244 246 248
276 272 271 277 282 286 287 286 281 276 274 272 270 272 269 267 267 272 268 264 268 269 270 276 279 278 277 274 267 258 253 255 255 252 250 248 246 245 247 248 249 247 249
276 276 275 279 284 288 290 289 283 277 270 265 264 265 266 266 267 266 271 267 269 270 270 276 278 276 274 273 269 263 259 260 261 256 252 250 249 249 249 251 250 250 251
274 276 276 280 285 288 291 295 290 279 266 261 260 261 259 258 259 264 270 269 269 270 271 276 276 273 275 270 269 264 263 264 264 261 256 252 249 249 247 247 250 250 249
272 274 277 281 285 288 293 296 293 282 266 260 257 259 261 264 264 268 269 269 273 273 276 276 276 274 275 277 274 267 259 258 260 259 255 253 250 248 246 246 250 252 250
274 273 276 280 285 292 297 299 289 280 270 260 254 258 264 268 267 269 270 271 275 275 276 277 278 275 275 276 272 270 264 261 255 251 250 251 252 252 253 254 255 257 255
274 276 278 278 281 289 292 292 289 284 272 264 262 267 264 267 267 269 273 274 273 273 275 274 274 273 273 274 272 270 270 264 260 256 250 250 251 255 256 256 258 261 263
275 279 282 281 284 288 288 291 291 285 280 277 273 271 269 271 273 274 274 274 272 276 276 273 271 271 271 272 271 270 270 264 261 260 256 256 255 256 260 260 260 262 266
277 280 282 283 286 287 287 290 290 291 285 279 273 272 270 271 275 274 275 277 274 278 277 275 273 269 267 268 269 270 270 264 264 263 259 261 262 259 257 259 262 265 268
279 281 282 285 285 285 286 289 286 288 286 283 279 274 271 272 274 275 278 281 278 277 276 274 273 268 265 266 269 270 269 265 264 265 264 262 264 261 259 259 261 268 270
279 282 283 286 287 283 283 285 284 285 286 285 281 278 276 276 277 277 279 279 279 278 275 271 270 270 266 266 268 272 268 265 265 266 266 263 263 263 267 265 263 270 270
279 280 283 285 286 285 283 283 284 283 283 285 284 281 277 277 280 282 280 280 278 275 273 270 271 270 270 267 268 271 271 268 264 265 264 263 263 263 268 271 268 270 269
278 278 281 282 285 284 284 284 284 283 282 282 282 279 280 280 281 281 283 282 279 276 274 272 270 271 272 271 270 269 270 273 270 267 266 262 262 265 266 268 267 268 268
277 279 280 283 284 284 286 287 287 284 283 280 278 277 277 276 277 280 282 283 283 281 277 274 272 271 269 266 265 265 266 270 271 271 270 264 263 266 267 266 268 271 272
278 280 280 282 283 284 286 288 291 290 287 282 277 277 277 276 276 278 280 280 281 281 279 277 274 272 269 267 266 265 266 268 269 270 271 269 267 267 268 268 270 271 271
278 280 281 282 284 286 288 288 287 289 288 283 277 277 277 276 276 277 279 279 277 278 278 277 276 275 273 271 269 268 267 268 267 268 271 273 270 266 267 268 267 269 271
280 281 284 285 286 286 289 289 287 287 288 284 279 277 276 274 274 275 276 275 275 276 276 275 275 275 272 270 270 270 268 269 268 267 269 270 270 270 269 269 264 266 269
281 283 285 283 285 288 289 289 288 286 286 282 281 279 276 274 273 272 273 274 273 273 274 273 272 273 271 270 270 270 269 271 272 271 270 268 267 269 268 269 267 265 265
281 282 284 285 287 287 287 287 286 284 284 279 280 280 277 274 273 273 273 272 272 272 273 273 272 271 271 272 270 269 269 270 271 272 270 267 266 266 266 267 269 265 263
279 280 281 283 284 284 284 284 285 286 286 286 285 282 280 276 274 275 275 273 273 274 273 271 270 271 271 270 269 267 268 268 268 270 269 267 265 264 264 265 267 269 266
279 279 280 282 283 282 283 284 284 286 284 285 288 287 284 282 278 275 274 274 274 273 272 272 271 271 271 270 269 267 268 268 267 269 268 266 264 264 263 264 268 269 269
280 281 281 283 282 281 283 284 283 283 284 283 285 287 287 284 282 278 277 275 274 273 272 271 270 270 270 269 268 266 267 267 268 269 265 265 264 265 265 264 266 267 269
279 280 281 282 283 283 285 285 284 283 282 281 282 284 285 285 284 283 279 277 275 272 271 271 269 268 268 266 265 263 264 265 266 266 266 264 264 265 266 267 266 266 267
280 280 282 283 284 285 285 284 283 281 282 283 283 284 284 282 281 281 281 278 275 272 271 270 268 266 266 266 265 263 264 265 266 265 265 265 265 266 267 268 267 265 267
Height
5865 5865 5865 5865 5865 5865 5865 5865 5864 5864 5864 5864 5864 5864 5865 5865 5865 5865 5865 5865 5865 5865 5865 5865 5865 5865 5865 5865 5865 5865 5865 5866 5866 5867 5867 5868 5868 5869 5870 5870 5871 5872 5872
5864 5864 5864 5864 5864 5864 5864 5864 5863 5863 5863 5863 5863 5863 5863 5863 5864 5864 5864 5864 5865 5865 5865 5865 5865 5864 5864 5864 5864 5864 5865 5865 5866 5866 5867 5867 5868 5868 5869 5870 5870 5871 5871
5863 5863 5863 5863 5863 5863 5862 5862 5861 5861 5861 5861 5862 5862 5862 5862 5862 5863 5863 5863 5864 5864 5864 5864 5864 5863 5863 5863 5863 5863 5864 5864 5865 5865 5866 5866 5867 5867 5868 5869 5869 5870 5870
5862 5862 5862 5862 5862 5861 5860 5859 5858 5858 5859 5859 5860 5860 5861 5861 5861 5862 5862 5862 5863 5863 5863 5863 5863 5862 5862 5862 5862 5862 5863 5863 5864 5864 5865 5865 5866 5866 5867 5867 5868 5868 5869
5861 5861 5861 5861 5860 5859 5858 5855 5853 5853 5855 5856 5857 5858 5859 5860 5860 5860 5861 5861 5861 5862 5862 5862 5862 5861 5861 5861 5861 5862 5862 5862 5863 5863 5863 5864 5864 5865 5865 5866 5867 5867 5868
5860 5860 5860 5859 5859 5858 5856 5853 5850 5849 5851 5853 5855 5856 5857 5858 5858 5859 5859 5860 5860 5860 5861 5861 5860 5860 5860 5860 5860 5860 5861 5861 5861 5861 5862 5862 5863 5863 5864 5864 5865 5865 5866
5859 5858 5858 5858 5858 5857 5856 5853 5850 5849 5849 5850 5852 5854 5855 5856 5857 5857 5858 5858 5859 5859 5859 5859 5859 5859 5859 5859 5859 5859 5859 5860 5860 5860 5860 5861 5861 5861 5862 5863 5863 5863 5864
5857 5857 5857 5857 5857 5856 5855 5853 5851 5850 5849 5850 5851 5852 5854 5855 5855 5856 5856 5857 5857 5857 5857 5857 5857 5857 5857 5858 5858 5858 5858 5858 5858 5858 5859 5859 5859 5860 5860 5861 5861 5862 5862
5856 5856 5856 5856 5855 5855 5854 5853 5852 5851 5850 5850 5851 5852 5853 5853 5854 5854 5855 5855 5855 5856 5856 5856 5856 5856 5856 5856 5856 5856 5856 5856 5857 5857 5857 5857 5858 5858 5859 5859 5860 5860 5860
5855 5854 5855 5854 5854 5854 5853 5852 5851 5851 5851 5850 5851 5851 5852 5852 5852 5852 5853 5853 5853 5854 5854 5854 5854 5854 5854 5854 5854 5854 5854 5854 5855 5855 5855 5856 5856 5856 5857 5857 5858 5858 5858
5853 5853 5853 5853 5852 5852 5852 5851 5850 5850 5850 5850 5850 5850 5850 5851 5851 5851 5851 5851 5851 5852 5852 5852 5852 5852 5852 5852 5852 5852 5852 5853 5853 5853 5853 5853 5854 5854 5854 5855 5856 5856 5856
5851 5851 5851 5850 5850 5850 5850 5849 5849 5849 5849 5848 5848 5848 5848 5849 5849 5849 5849 5849 5849 5849 5849 5850 5850 5849 5849 5850 5850 5850 5850 5851 5851 5851 5851 5851 5852 5852 5852 5853 5854 5854 5854
5849 5849 5848 5848 5848 5848 5848 5848 5847 5847 5847 5847 5847 5846 5847 5847 5847 5847 5847 5847 5847 5847 5847 5847 5848 5847 5847 5847 5848 5848 5848 5849 5849 5849 5849 5850 5850 5850 5850 5851 5852 5852 5852
5847 5847 5846 5846 5846 5846 5846 5846 5846 5845 5845 5845 5845 5845 5845 5845 5845 5845 5845 5845 5845 5845 5845 5845 5845 5845 5845 5845 5846 5846 5846 5847 5847 5847 5848 5848 5848 5848 5849 5849 5850 5850 5850
5844 5844 5844 5844 5844 5844 5843 5843 5843 5843 5843 5843 5843 5843 5842 5843 5843 5843 5843 5843 5843 5843 5843 5843 5843 5843 5843 5843 5844 5844 5844 5844 5845 5845 5845 5846 5846 5846 5846 5847 5847 5848 5848
5842 5842 5842 5842 5841 5841 5841 5841 5841 5841 5840 5840 5840 5840 5840 5840 5840 5840 5840 5840 5840 5840 5840 5840 5840 5840 5841 5841 5841 5842 5842 5842 5842 5843 5843 5843 5844 5844 5844 5844 5845 5845 5845
5840 5840 5839 5839 5839 5839 5839 5838 5838 5838 5837 5837 5837 5837 5837 5837 5838 5838 5838 5838 5838 5837 5837 5837 5837 5838 5838 5838 5839 5839 5840 5840 5840 5841 5841 5841 5842 5842 5842 5842 5842 5843 5843
5837 5837 5837 5837 5837 5836 5836 5836 5835 5835 5835 5834 5834 5834 5834 5834 5835 5835 5835 5835 5835 5835 5835 5835 5835 5835 5835 5836 5836 5837 5837 5837 5838 5838 5838 5839 5839 5839 5839 5839 5839 5840 5840
5834 5834 5834 5834 5834 5833 5833 5833 5832 5832 5832 5831 5831 5831 5831 5831 5832 5832 5832 5832 5832 5832 5832 5832 5832 5832 5832 5833 5833 5834 5834 5835 5835 5835 5836 5836 5836 5836 5837 5837 5837 5837 5837
5831 5831 5831 5830 5830 5830 5830 5829 5829 5829 5828 5828 5828 5828 5828 5828 5828 5828 5828 5828 5829 5829 5829 5829 5829 5829 5830 5830 5830 5831 5831 5831 5832 5832 5833 5833 5833 5833 5834 5834 5834 5834 5835
5828 5828 5827 5826 5827 5827 5827 5826 5826 5826 5825 5825 5825 5824 5824 5824 5824 5824 5825 5825 5825 5825 5825 5826 5826 5826 5826 5827 5827 5828 5828 5828 5829 5829 5829 5830 5830 5830 5830 5831 5831 5831 5832
5825 5825 5824 5824 5824 5824 5823 5823 5822 5822 5822 5822 5821 5820 5820 5820 5820 5820 5820 5820 5821 5821 5821 5822 5822 5822 5822 5823 5823 5824 5824 5826 5825 5826 5826 5826 5827 5827 5827 5828 5828 5829 5829
5821 5821 5821 5820 5820 5820 5819 5819 5818 5818 5818 5818 5817 5817 5816 5816 5816 5816 5816 5816 5816 5816 5817 5817 5818 5818 5818 5819 5819 5820 5821 5821 5822 5822 5822 5823 5823 5823 5824 5825 5825 5826 5826
5818 5817 5817 5817 5816 5816 5815 5815 5814 5814 5814 5813 5813 5812 5812 5811 5811 5811 5811 5810 5811 5811 5812 5812 5813 5813 5814 5814 5815 5816 5817 5817 5818 5818 5819 5819 5819 5820 5821 5821 5822 5823 5823
5814 5814 5814 5813 5812 5812 5811 5811 5810 5810 5809 5809 5808 5808 5808 5807 5806 5806 5805 5805 5805 5805 5806 5806 5807 5808 5809 5809 5810 5811 5812 5813 5813 5814 5815 5815 5816 5816 5817 5818 5818 5819 5820
5811 5810 5810 5809 5809 5808 5808 5807 5806 5806 5805 5804 5804 5803 5802 5801 5801 5800 5800 5799 5799 5800 5800 5801 5801 5802 5803 5804 5805 5806 5807 5808 5809 5809 5810 5811 5812 5812 5813 5814 5814 5815 5815